Location: Crescent
(42.8242°N, 73.7329°W)
Time: 15:43:18
(UTC+00:00)

Courier 1B - Pass Details

Date: 19 February 2026
Orbit: 962 x 1208 km, 28.3° (Epoch: 7 March)

Event Time Altitude Azimuth Distance (km) Brightness Sun altitude
Rises 00:13:26 0° 225° (SW) 3,870 11.3 -19.5°
Reaches altitude 10° 00:16:53 10° 209° (SSW) 2,960 10.3 -20.1°
Maximum altitude 00:22:01 21° 164° (SSE) 2,332 9.3 -21.1°
Enters shadow 00:23:56 19° 145° (SE) 2,457 9.2 -21.4°
